Back to catalog

STARLINK-30264

AliveCommunicationsVLEO
NORAD 57534·PAYLOAD·🇺🇸 United States

Launched Aug 8, 2023 from Vandenberg Space Force Base

Loading…

Next Passes (next 24 hours)

TLE

FreshSource: CelesTrak SupGP

Epoch: Sep 15, 2026, 02:59 UTC

1 57534C 23115P   26258.12479167 -.00055775  00000+0 -20205-2 0  2585
2 57534  43.0018 219.0709 0001345 270.8389 258.8963 15.27600857    13

Track STARLINK-30264 in real time with AllMySat

Download on the App Store